Total_Precipitation_Accumulation
0.30 0.31 0.29 0.27 0.22 0.21 0.21 0.24 0.47 0.78 1.08 1.47 1.67 1.58 1.54 1.46 1.22 0.97 0.86 0.82 0.80 0.77 0.69 0.61 0.57 0.54 0.50 0.49 0.47 0.47 0.49 0.52 0.49 0.43 0.40 0.40 0.41 0.44 0.43 0.39 0.36 0.35 0.31 0.28
0.26 0.21 0.26 0.31 0.31 0.33 0.37 0.42 0.55 0.87 1.33 1.76 1.85 1.69 1.60 1.53 1.36 1.18 1.10 1.04 0.98 0.90 0.83 0.78 0.74 0.68 0.63 0.60 0.58 0.57 0.59 0.62 0.63 0.61 0.57 0.52 0.47 0.43 0.37 0.33 0.27 0.21 0.16 0.15
0.39 0.24 0.35 0.60 0.50 0.44 0.50 0.57 0.72 1.10 1.41 1.54 1.62 1.66 1.68 1.72 1.62 1.42 1.30 1.21 1.15 1.10 1.02 0.96 0.92 0.87 0.81 0.75 0.70 0.68 0.68 0.69 0.68 0.64 0.58 0.49 0.38 0.32 0.28 0.25 0.22 0.19 0.14 0.10
0.39 0.43 0.81 0.80 0.47 0.45 0.57 0.66 0.76 0.92 1.09 1.21 1.22 1.28 1.34 1.43 1.47 1.40 1.27 1.20 1.16 1.14 1.12 1.10 1.00 0.92 0.86 0.80 0.74 0.71 0.71 0.68 0.63 0.55 0.48 0.38 0.31 0.27 0.25 0.23 0.23 0.22 0.18 0.15
0.41 0.60 0.79 0.76 0.45 0.41 0.71 1.11 0.92 0.87 0.81 0.77 0.75 0.83 1.09 1.24 1.27 1.29 1.32 1.31 1.24 1.16 1.08 1.04 0.99 0.92 0.87 0.84 0.79 0.71 0.66 0.57 0.47 0.40 0.35 0.29 0.26 0.24 0.23 0.21 0.20 0.18 0.17 0.17
0.46 0.71 0.96 0.95 0.42 0.29 0.58 1.33 1.10 0.92 0.83 0.77 0.83 0.97 1.02 1.01 0.99 1.05 1.11 1.12 1.05 0.94 0.85 0.82 0.82 0.79 0.72 0.68 0.64 0.56 0.45 0.37 0.32 0.30 0.29 0.27 0.24 0.23 0.22 0.21 0.20 0.16 0.14 0.15
0.56 0.83 1.04 0.54 0.22 0.35 0.92 1.23 1.07 0.91 0.80 0.77 0.94 0.93 0.73 0.68 0.73 0.76 0.82 0.81 0.76 0.72 0.74 0.73 0.66 0.56 0.51 0.45 0.41 0.35 0.29 0.26 0.25 0.24 0.21 0.23 0.24 0.23 0.23 0.22 0.23 0.21 0.19 0.17
0.68 0.94 1.05 0.42 0.26 0.50 0.67 0.62 0.70 0.72 0.68 0.63 0.58 0.48 0.44 0.45 0.49 0.52 0.55 0.56 0.55 0.56 0.59 0.57 0.46 0.40 0.39 0.35 0.28 0.23 0.24 0.26 0.26 0.22 0.17 0.20 0.27 0.27 0.25 0.28 0.30 0.29 0.26 0.23
0.69 0.87 0.71 0.37 0.29 0.33 0.38 0.51 0.50 0.47 0.42 0.33 0.30 0.27 0.29 0.32 0.33 0.36 0.38 0.42 0.45 0.43 0.43 0.43 0.40 0.38 0.37 0.34 0.26 0.25 0.29 0.31 0.27 0.22 0.20 0.23 0.27 0.27 0.26 0.27 0.25 0.24 0.23 0.22
0.46 0.58 0.46 0.36 0.28 0.26 0.28 0.34 0.30 0.30 0.30 0.22 0.22 0.25 0.27 0.30 0.29 0.29 0.32 0.34 0.37 0.36 0.35 0.37 0.36 0.36 0.37 0.32 0.30 0.36 0.40 0.36 0.27 0.25 0.24 0.24 0.24 0.21 0.19 0.20 0.18 0.17 0.19 0.17
0.44 0.51 0.47 0.46 0.28 0.22 0.20 0.19 0.18 0.23 0.23 0.19 0.16 0.21 0.24 0.27 0.28 0.29 0.30 0.32 0.33 0.34 0.33 0.28 0.27 0.28 0.28 0.31 0.35 0.45 0.44 0.34 0.27 0.24 0.23 0.22 0.19 0.13 0.09 0.09 0.07 0.10 0.13 0.12
0.38 0.36 0.42 0.47 0.30 0.20 0.22 0.21 0.19 0.18 0.19 0.21 0.19 0.20 0.21 0.23 0.26 0.27 0.25 0.26 0.30 0.31 0.28 0.25 0.24 0.24 0.25 0.30 0.32 0.39 0.40 0.29 0.22 0.18 0.16 0.14 0.14 0.14 0.07 0.03 0.03 0.03 0.04 0.04
0.20 0.19 0.23 0.21 0.15 0.15 0.17 0.19 0.21 0.20 0.19 0.20 0.22 0.21 0.20 0.21 0.21 0.23 0.23 0.24 0.27 0.28 0.26 0.22 0.21 0.22 0.21 0.22 0.25 0.28 0.29 0.21 0.16 0.14 0.14 0.14 0.13 0.19 0.20 0.09 0.03 0.02 0.02 0.03
0.08 0.11 0.16 0.16 0.16 0.15 0.17 0.20 0.19 0.18 0.20 0.23 0.23 0.20 0.16 0.15 0.16 0.19 0.19 0.18 0.16 0.17 0.19 0.21 0.18 0.16 0.13 0.13 0.17 0.16 0.13 0.08 0.08 0.11 0.11 0.10 0.09 0.11 0.14 0.19 0.19 0.12 0.05 0.03
0.08 0.11 0.16 0.18 0.20 0.19 0.19 0.22 0.21 0.19 0.19 0.20 0.17 0.14 0.11 0.11 0.13 0.13 0.12 0.10 0.12 0.16 0.16 0.14 0.13 0.12 0.08 0.08 0.11 0.10 0.07 0.07 0.07 0.06 0.05 0.05 0.05 0.06 0.06 0.09 0.16 0.20 0.15 0.08
0.13 0.12 0.13 0.18 0.23 0.24 0.24 0.25 0.21 0.17 0.13 0.11 0.10 0.09 0.09 0.09 0.08 0.08 0.08 0.09 0.14 0.17 0.15 0.13 0.12 0.09 0.05 0.06 0.07 0.07 0.06 0.04 0.05 0.04 0.02 0.02 0.03 0.03 0.03 0.05 0.09 0.14 0.14 0.09
0.15 0.13 0.12 0.14 0.17 0.20 0.17 0.13 0.11 0.09 0.07 0.06 0.06 0.05 0.05 0.06 0.07 0.08 0.08 0.09 0.14 0.15 0.14 0.12 0.09 0.05 0.02 0.02 0.04 0.04 0.03 0.02 0.01 0.01 0.01 0.01 0.02 0.02 0.02 0.03 0.06 0.08 0.07 0.05
0.15 0.13 0.11 0.10 0.10 0.10 0.08 0.06 0.04 0.05 0.04 0.02 0.02 0.03 0.04 0.06 0.06 0.06 0.06 0.06 0.09 0.12 0.11 0.06 0.04 0.03 0.02 0.01 0.02 0.02 0.02 0.02 0.01 0.01 0.01 0.01 0.01 0.02 0.02 0.02 0.04 0.05 0.05 0.05
0.08 0.06 0.05 0.05 0.05 0.04 0.03 0.03 0.03 0.02 0.01 0.01 0.01 0.03 0.04 0.04 0.03 0.03 0.03 0.05 0.07 0.10 0.08 0.03 0.02 0.02 0.02 0.01 0.01 0.01 0.01 0.01 0.00 0.00 0.00 0.00 0.01 0.01 0.01 0.01 0.02 0.03 0.04 0.06
0.03 0.02 0.02 0.03 0.02 0.02 0.02 0.02 0.01 0.01 0.01 0.01 0.02 0.03 0.03 0.02 0.01 0.02 0.03 0.06 0.06 0.05 0.03 0.01 0.01 0.02 0.02 0.01 0.00 0.00 0.00 0.00 0.00 0.00 0.00 0.00 0.00 0.00 0.00 0.00 0.01 0.02 0.03 0.04
0.02 0.02 0.02 0.01 0.02 0.01 0.01 0.01 0.02 0.02 0.02 0.01 0.02 0.02 0.02 0.01 0.01 0.01 0.03 0.05 0.05 0.03 0.02 0.01 0.01 0.01 0.01 0.00 0.00 0.00 0.00 0.00 0.00 0.00 0.00 0.00 0.00 0.00 0.00 0.00 0.01 0.01 0.02 0.03
0.03 0.02 0.02 0.01 0.01 0.01 0.01 0.02 0.02 0.02 0.01 0.01 0.01 0.01 0.01 0.01 0.01 0.01 0.02 0.04 0.04 0.02 0.01 0.00 0.01 0.01 0.00 0.00 0.00 0.00 0.00 0.00 0.00 0.00 0.00 0.00 0.00 0.00 0.01 0.01 0.01 0.01 0.02 0.03
0.06 0.03 0.02 0.02 0.01 0.01 0.02 0.03 0.01 0.01 0.01 0.01 0.01 0.01 0.01 0.01 0.00 0.01 0.02 0.02 0.01 0.00 0.01 0.01 0.00 0.00 0.00 0.00 0.00 0.00 0.00 0.00 0.00 0.00 0.00 0.00 0.00 0.00 0.00 0.00 0.00 0.01 0.01 0.01
0.10 0.05 0.03 0.03 0.03 0.03 0.02 0.01 0.01 0.01 0.00 0.00 0.00 0.01 0.01 0.01 0.00 0.00 0.00 0.00 0.00 0.00 0.00 0.00 0.00 0.00 0.00 0.00 0.00 0.00 0.00 0.00 0.00 0.00 0.00 0.00 0.00 0.00 0.00 0.00 0.00 0.00 0.00 0.00
0.08 0.06 0.04 0.04 0.05 0.04 0.03 0.02 0.01 0.01 0.01 0.01 0.00 0.00 0.00 0.00 0.00 0.00 0.00 0.00 0.00 0.00 0.00 0.00 0.00 0.00 0.00 0.00 0.00 0.00 0.00 0.00 0.00 0.00 0.00 0.00 0.00 0.00 0.00 0.00 0.00 0.00 0.00 0.00
0.12 0.12 0.08 0.06 0.05 0.04 0.03 0.02 0.02 0.03 0.02 0.01 0.01 0.01 0.01 0.00 0.00 0.00 0.00 0.00 0.00 0.00 0.00 0.00 0.00 0.00 0.00 0.00 0.00 0.00 0.00 0.00 0.00 0.00 0.00 0.00 0.00 0.00 0.00 0.00 0.00 0.00 0.00 0.00
0.21 0.18 0.13 0.11 0.08 0.04 0.02 0.02 0.02 0.03 0.02 0.02 0.02 0.01 0.01 0.01 0.00 0.00 0.00 0.00 0.00 0.00 0.00 0.00 0.00 0.00 0.00 0.00 0.00 0.00 0.00 0.00 0.00 0.00 0.00 0.00 0.00 0.00 0.00 0.00 0.00 0.00 0.00 0.00